Location: Ch?enovice
(49.7164°N, 15.2160°E)
Time: 20:04:11
(UTC+00:00)

Cosmos 2333 Rocket - Pass Details

Date: 23 May 2024
Orbit: 838 x 863 km, 70.8° (Epoch: 20 June)

Event Time Altitude Azimuth Distance (km) Brightness Sun altitude
Rises 00:46:25 0° 332° (NNW) 3,423 5.9 -15.5°
Reaches altitude 10° 00:48:55 10° 336° (NNW) 2,488 5.2 -15.3°
Maximum altitude 00:54:33 58° 56° (NE) 995 2.9 -14.9°
Drops below altitude 10° 01:00:12 10° 135° (SE) 2,489 4.5 -14.4°
Sets 01:02:42 0° 139° (SE) 3,425 5.2 -14.2°
